Total_Precipitation_Accumulation
1.15 1.02 0.96 1.14 1.13 1.17 1.22 1.24 1.25 1.12 1.02 0.91 0.88 0.81 0.86 0.82 0.78 0.75 0.90 0.98 1.24 1.64 1.86 1.84 1.80 1.59 1.51 1.44 1.48 1.53 1.58 1.55 1.79 2.20 2.61 2.69 2.35 1.83 1.44 1.26 1.25 1.16 1.23
1.04 1.04 0.90 0.97 1.08 1.22 1.42 1.47 1.30 1.20 1.14 1.07 1.07 1.02 1.00 0.93 0.89 0.77 0.85 0.90 0.85 1.03 1.39 1.79 2.02 1.87 1.73 1.60 1.55 1.57 1.57 1.53 1.66 1.91 2.04 2.19 2.20 1.87 1.42 1.23 1.20 1.10 1.24
0.88 0.99 1.00 0.97 1.01 1.23 1.48 1.61 1.48 1.36 1.20 1.18 1.17 1.15 1.05 1.05 1.01 0.91 0.92 1.02 0.85 0.80 1.05 1.50 1.93 2.06 1.95 1.88 1.74 1.67 1.57 1.51 1.55 1.67 1.81 1.81 1.89 1.80 1.48 1.30 1.21 1.18 1.20
0.93 1.05 1.11 1.05 1.05 1.26 1.48 1.66 1.69 1.65 1.52 1.44 1.37 1.29 1.21 1.29 1.16 1.07 1.05 1.10 1.19 1.02 0.98 1.17 1.47 1.79 2.01 2.07 1.86 1.65 1.52 1.43 1.42 1.44 1.57 1.46 1.53 1.58 1.39 1.24 1.24 1.29 1.31
0.94 1.09 1.26 1.28 1.27 1.39 1.47 1.50 1.59 1.58 1.59 1.60 1.44 1.41 1.34 1.43 1.43 1.29 1.33 1.33 1.35 1.28 1.14 1.01 1.10 1.20 1.56 1.93 1.93 1.75 1.62 1.48 1.39 1.34 1.44 1.31 1.28 1.36 1.22 1.20 1.26 1.30 1.28
1.16 1.14 1.27 1.29 1.35 1.52 1.56 1.66 1.84 1.75 1.64 1.74 1.60 1.52 1.47 1.45 1.43 1.48 1.53 1.52 1.49 1.34 1.30 1.14 1.15 1.01 1.13 1.46 1.63 1.70 1.66 1.66 1.61 1.49 1.49 1.35 1.20 1.20 1.20 1.13 1.12 1.16 1.20
1.30 1.32 1.33 1.33 1.38 1.44 1.49 1.66 2.00 2.00 1.82 1.72 1.91 1.89 1.79 1.60 1.54 1.55 1.55 1.65 1.64 1.46 1.42 1.47 1.34 1.12 0.95 0.98 1.10 1.39 1.52 1.73 1.84 1.75 1.68 1.50 1.23 1.21 1.26 1.08 1.10 1.15 1.12
1.28 1.22 1.37 1.46 1.43 1.53 1.61 1.76 2.03 2.20 2.00 1.82 2.14 2.55 2.34 2.07 1.74 1.54 1.53 1.46 1.56 1.57 1.47 1.35 1.28 1.19 1.05 1.03 0.82 0.97 1.25 1.62 2.01 1.97 1.75 1.61 1.37 1.25 1.26 1.12 1.10 1.14 1.16
1.54 1.47 1.54 1.67 1.58 1.61 1.69 1.72 1.81 2.22 2.35 2.14 2.10 2.62 2.50 2.31 2.23 1.76 1.41 1.28 1.48 1.59 1.58 1.45 1.35 1.36 1.29 1.21 1.01 0.81 0.93 1.24 1.81 1.94 1.79 1.71 1.56 1.40 1.27 1.19 1.15 1.16 1.27
1.75 1.64 1.64 1.68 1.69 1.74 1.70 1.58 1.73 2.12 2.54 2.55 2.35 2.17 2.03 2.00 2.19 2.09 1.56 1.30 1.38 1.50 1.65 1.55 1.48 1.47 1.44 1.42 1.32 1.02 0.79 0.87 1.39 1.93 2.06 1.99 1.84 1.66 1.53 1.42 1.32 1.30 1.31
1.76 1.62 1.55 1.61 1.67 1.76 1.76 1.81 1.98 2.26 2.50 2.70 2.64 2.39 2.12 1.92 1.61 1.80 1.81 1.60 1.38 1.31 1.38 1.46 1.56 1.54 1.47 1.41 1.44 1.24 0.87 0.72 0.96 1.56 2.05 2.16 2.01 1.84 1.77 1.71 1.65 1.67 1.60
1.60 1.54 1.52 1.50 1.46 1.53 1.64 1.81 2.05 2.18 2.36 2.57 2.59 2.32 2.15 2.03 1.86 1.75 1.62 1.69 1.67 1.39 1.26 1.23 1.34 1.44 1.44 1.41 1.25 1.30 1.08 0.82 0.76 0.94 1.30 1.72 1.85 1.88 1.87 1.87 1.83 1.82 1.87
1.38 1.39 1.41 1.37 1.27 1.26 1.38 1.56 1.78 1.85 1.98 2.18 2.26 2.15 2.03 1.87 1.83 1.90 1.87 1.78 1.66 1.40 1.26 1.09 1.15 1.27 1.27 1.32 1.37 1.38 1.15 1.00 0.81 0.75 0.81 0.99 1.28 1.60 1.85 2.01 2.06 2.03 2.00
1.21 1.14 1.17 1.17 1.16 1.16 1.18 1.28 1.42 1.48 1.58 1.78 1.85 1.88 1.79 1.75 1.78 1.77 1.81 1.94 1.82 1.60 1.28 0.97 1.00 1.13 1.08 1.13 1.33 1.35 1.00 0.95 0.85 0.77 0.73 0.72 0.79 1.00 1.34 1.58 1.80 2.02 2.08
0.99 0.94 1.00 1.08 1.16 1.10 1.04 1.11 1.21 1.25 1.38 1.54 1.66 1.79 1.74 1.70 1.70 1.74 1.82 1.87 1.89 1.76 1.50 1.11 0.97 0.91 0.93 1.01 1.29 1.14 0.99 0.96 0.87 0.81 0.73 0.64 0.60 0.61 0.75 0.95 1.19 1.39 1.52
0.89 0.89 0.91 0.92 0.95 0.95 0.98 1.08 1.19 1.26 1.30 1.37 1.46 1.60 1.72 1.75 1.77 1.77 1.82 1.83 1.79 1.76 1.67 1.28 1.03 0.86 0.92 0.90 1.10 0.91 1.01 1.17 0.96 0.80 0.71 0.65 0.61 0.59 0.58 0.66 0.73 0.78 0.83
0.70 0.71 0.68 0.73 0.86 0.87 0.86 0.99 1.05 1.05 1.17 1.26 1.28 1.32 1.49 1.61 1.72 1.77 1.78 1.77 1.82 1.77 1.64 1.43 1.13 0.95 1.02 1.02 1.07 0.93 0.94 0.99 0.91 0.87 0.78 0.69 0.61 0.59 0.56 0.59 0.59 0.56 0.58
0.48 0.53 0.56 0.56 0.75 0.92 0.94 0.97 0.98 0.95 1.03 1.09 1.15 1.22 1.30 1.32 1.42 1.56 1.66 1.65 1.73 1.78 1.73 1.63 1.34 1.11 1.08 1.12 1.25 1.26 1.18 1.11 1.08 1.16 1.10 0.91 0.75 0.67 0.64 0.61 0.59 0.53 0.50
0.38 0.41 0.54 0.52 0.58 0.74 0.86 0.86 0.84 0.87 0.90 0.96 1.00 1.05 1.09 1.17 1.28 1.31 1.39 1.48 1.57 1.62 1.71 1.65 1.55 1.42 1.25 1.18 1.22 1.22 1.30 1.45 1.39 1.37 1.40 1.22 0.99 0.84 0.75 0.70 0.66 0.60 0.54
0.42 0.39 0.39 0.40 0.46 0.56 0.69 0.70 0.70 0.72 0.75 0.78 0.88 0.95 1.00 1.04 1.12 1.20 1.22 1.34 1.46 1.56 1.58 1.55 1.49 1.42 1.37 1.33 1.33 1.29 1.35 1.49 1.56 1.46 1.42 1.34 1.24 1.11 0.96 0.84 0.73 0.67 0.64
0.26 0.28 0.24 0.26 0.30 0.39 0.44 0.45 0.52 0.60 0.66 0.71 0.80 0.84 0.87 0.83 0.86 0.93 0.94 1.11 1.27 1.45 1.52 1.55 1.46 1.35 1.30 1.32 1.31 1.32 1.37 1.53 1.58 1.61 1.60 1.46 1.34 1.17 1.04 0.94 0.82 0.75 0.71
0.13 0.18 0.18 0.21 0.25 0.27 0.33 0.32 0.36 0.48 0.58 0.63 0.71 0.74 0.80 0.83 0.78 0.74 0.74 0.81 0.95 1.07 1.25 1.38 1.41 1.34 1.27 1.25 1.33 1.44 1.45 1.53 1.63 1.56 1.48 1.55 1.48 1.36 1.18 0.99 0.97 0.93 0.83
0.11 0.12 0.14 0.20 0.21 0.18 0.21 0.19 0.30 0.50 0.55 0.56 0.54 0.67 0.78 0.84 0.87 0.89 0.78 0.76 0.78 0.82 0.92 1.09 1.22 1.23 1.21 1.23 1.29 1.38 1.45 1.49 1.41 1.47 1.42 1.50 1.48 1.36 1.20 1.13 1.17 1.04 0.94
0.09 0.13 0.15 0.21 0.18 0.12 0.13 0.16 0.24 0.40 0.48 0.47 0.47 0.58 0.73 0.84 0.87 0.89 0.85 0.91 0.89 0.79 0.76 0.84 1.03 1.11 1.11 1.23 1.36 1.47 1.58 1.57 1.52 1.50 1.42 1.43 1.39 1.26 1.16 1.14 1.21 1.08 0.97
0.09 0.12 0.16 0.17 0.13 0.09 0.10 0.14 0.23 0.39 0.47 0.47 0.44 0.52 0.68 0.76 0.86 0.87 0.84 0.95 0.95 0.78 0.71 0.81 0.86 0.92 1.01 1.13 1.31 1.45 1.54 1.55 1.54 1.51 1.36 1.23 1.18 1.23 1.23 1.16 1.13 1.12 1.00
0.10 0.11 0.13 0.14 0.12 0.13 0.11 0.11 0.18 0.28 0.37 0.45 0.45 0.50 0.69 0.75 0.77 0.74 0.76 0.97 1.06 0.93 0.71 0.69 0.76 0.89 0.97 1.10 1.32 1.46 1.68 1.68 1.49 1.46 1.35 1.21 1.20 1.28 1.41 1.31 1.13 1.03 0.96